Year,Month,Day,Hour,Minute,Value (Times are PST for temperature in C)
2015,03,24,00,00,5.20
2015,03,24,00,01,5.20
2015,03,24,00,02,5.20
2015,03,24,00,03,5.20
2015,03,24,00,04,5.20
2015,03,24,00,05,5.20
2015,03,24,00,06,5.20
2015,03,24,00,07,5.20
2015,03,24,00,08,5.20
2015,03,24,00,09,5.20
2015,03,24,00,10,5.20
2015,03,24,00,11,5.20
2015,03,24,00,12,5.20
2015,03,24,00,13,5.20
2015,03,24,00,14,5.20
2015,03,24,00,15,5.20
2015,03,24,00,16,5.20
2015,03,24,00,17,5.20
2015,03,24,00,18,5.20
2015,03,24,00,19,5.20
2015,03,24,00,20,5.20
2015,03,24,00,21,5.20
2015,03,24,00,22,5.20
2015,03,24,00,23,5.20
2015,03,24,00,24,5.20
2015,03,24,00,25,5.10
2015,03,24,00,26,5.10
2015,03,24,00,27,5.10
2015,03,24,00,28,5.10
2015,03,24,00,29,5.10
2015,03,24,00,30,5.10
2015,03,24,00,31,5.10
2015,03,24,00,32,5.10
2015,03,24,00,33,5.10
2015,03,24,00,34,5.10
2015,03,24,00,35,5.10
2015,03,24,00,36,5.20
2015,03,24,00,37,5.20
2015,03,24,00,38,5.20
2015,03,24,00,39,5.20
2015,03,24,00,40,5.10
2015,03,24,00,41,5.10
2015,03,24,00,42,5.10
2015,03,24,00,43,5.10
2015,03,24,00,44,5.10
2015,03,24,00,45,5.10
2015,03,24,00,46,5.10
2015,03,24,00,47,5.10
2015,03,24,00,48,5.10
2015,03,24,00,49,5.10
2015,03,24,00,50,5.10
2015,03,24,00,51,5.10
2015,03,24,00,52,5.10
2015,03,24,00,53,5.10
2015,03,24,00,54,5.10
2015,03,24,00,55,5.10
2015,03,24,00,56,5.20
2015,03,24,00,57,5.20
2015,03,24,00,58,5.10
2015,03,24,00,59,5.10
2015,03,24,01,00,5.10
2015,03,24,01,01,5.10
2015,03,24,01,02,5.10
2015,03,24,01,03,5.10
2015,03,24,01,04,5.10
2015,03,24,01,05,5.10
2015,03,24,01,06,5.10
2015,03,24,01,07,5.10
2015,03,24,01,08,5.10
2015,03,24,01,09,5.10
2015,03,24,01,10,5.10
2015,03,24,01,11,5.10
2015,03,24,01,12,5.10
2015,03,24,01,13,5.10
2015,03,24,01,14,5.10
2015,03,24,01,15,5.10
2015,03,24,01,16,5.10
2015,03,24,01,17,5.10
2015,03,24,01,18,5.10
2015,03,24,01,19,5.10
2015,03,24,01,20,5.10
2015,03,24,01,21,5.10
2015,03,24,01,22,5.10
2015,03,24,01,23,5.10
2015,03,24,01,24,5.10
2015,03,24,01,25,5.10
2015,03,24,01,26,5.10
2015,03,24,01,27,5.10
2015,03,24,01,28,5.10
2015,03,24,01,29,5.10
2015,03,24,01,30,5.10
2015,03,24,01,31,5.10
2015,03,24,01,32,5.10
2015,03,24,01,33,5.10
2015,03,24,01,34,5.10
2015,03,24,01,35,5.10
2015,03,24,01,36,5.10
2015,03,24,01,37,5.10
2015,03,24,01,38,5.10
2015,03,24,01,39,5.10
2015,03,24,01,40,5.10
2015,03,24,01,41,5.10
2015,03,24,01,42,5.10
2015,03,24,01,43,5.10
2015,03,24,01,44,5.10
2015,03,24,01,45,5.20
2015,03,24,01,46,5.20
2015,03,24,01,47,5.20
2015,03,24,01,48,5.20
2015,03,24,01,49,5.20
2015,03,24,01,50,5.20
2015,03,24,01,51,5.10
2015,03,24,01,52,5.20
2015,03,24,01,53,5.20
2015,03,24,01,54,5.20
2015,03,24,01,55,5.20
2015,03,24,01,56,5.10
2015,03,24,01,57,5.10
2015,03,24,01,58,5.10
2015,03,24,01,59,5.10
2015,03,24,02,00,5.10
2015,03,24,02,01,5.10
2015,03,24,02,02,5.10
2015,03,24,02,03,5.10
2015,03,24,02,04,5.10
2015,03,24,02,05,5.10
2015,03,24,02,06,5.10
2015,03,24,02,07,5.10
2015,03,24,02,08,5.10
2015,03,24,02,09,5.10
2015,03,24,02,10,5.10
2015,03,24,02,11,5.10
2015,03,24,02,12,5.10
2015,03,24,02,13,5.10
2015,03,24,02,14,5.10
2015,03,24,02,15,5.10
2015,03,24,02,16,5.10
2015,03,24,02,17,5.10
2015,03,24,02,18,5.10
2015,03,24,02,19,5.10
2015,03,24,02,20,5.10
2015,03,24,02,21,5.10
2015,03,24,02,22,5.10
2015,03,24,02,23,5.10
2015,03,24,02,24,5.10
2015,03,24,02,25,5.10
2015,03,24,02,26,5.10
2015,03,24,02,27,5.10
2015,03,24,02,28,5.10
2015,03,24,02,29,5.10
2015,03,24,02,30,5.10
2015,03,24,02,31,5.10
2015,03,24,02,32,5.10
2015,03,24,02,33,5.10
2015,03,24,02,34,5.10
2015,03,24,02,35,5.10
2015,03,24,02,36,5.10
2015,03,24,02,37,5.10
2015,03,24,02,38,5.10
2015,03,24,02,39,5.10
2015,03,24,02,40,5.10
2015,03,24,02,41,5.10
2015,03,24,02,42,5.10
2015,03,24,02,43,5.10
2015,03,24,02,44,5.10
2015,03,24,02,45,5.10
2015,03,24,02,46,5.10
2015,03,24,02,47,5.10
2015,03,24,02,48,5.10
2015,03,24,02,49,5.10
2015,03,24,02,50,5.10
2015,03,24,02,51,5.10
2015,03,24,02,52,5.10
2015,03,24,02,53,5.10
2015,03,24,02,54,5.10
2015,03,24,02,55,5.10
2015,03,24,02,56,5.10
2015,03,24,02,57,5.10
2015,03,24,02,58,5.10
2015,03,24,02,59,5.10
2015,03,24,03,00,5.10
2015,03,24,03,01,5.10
2015,03,24,03,02,5.10
2015,03,24,03,03,5.10
2015,03,24,03,04,5.10
2015,03,24,03,05,5.10
2015,03,24,03,06,5.10
2015,03,24,03,07,5.10
2015,03,24,03,08,5.10
2015,03,24,03,09,5.10
2015,03,24,03,10,5.10
2015,03,24,03,11,5.10
2015,03,24,03,12,5.10
2015,03,24,03,13,5.10
2015,03,24,03,14,5.10
2015,03,24,03,15,5.10
2015,03,24,03,16,5.10
2015,03,24,03,17,5.10
2015,03,24,03,18,5.10
2015,03,24,03,19,5.10
2015,03,24,03,20,5.10
2015,03,24,03,21,5.10
2015,03,24,03,22,5.10
2015,03,24,03,23,5.10
2015,03,24,03,24,5.10
2015,03,24,03,25,5.10
2015,03,24,03,26,5.10
2015,03,24,03,27,5.10
2015,03,24,03,28,5.10
2015,03,24,03,29,5.10
2015,03,24,03,30,5.10
2015,03,24,03,31,5.10
2015,03,24,03,32,5.10
2015,03,24,03,33,5.10
2015,03,24,03,34,5.10
2015,03,24,03,35,5.10
2015,03,24,03,36,5.10
2015,03,24,03,37,5.10
2015,03,24,03,38,5.10
2015,03,24,03,39,5.10
2015,03,24,03,40,5.10
2015,03,24,03,41,5.10
2015,03,24,03,42,5.10
2015,03,24,03,43,5.10
2015,03,24,03,44,5.10
2015,03,24,03,45,5.10
2015,03,24,03,46,5.10
2015,03,24,03,47,5.10
2015,03,24,03,48,5.10
2015,03,24,03,49,5.10
2015,03,24,03,50,5.10
2015,03,24,03,51,5.10
2015,03,24,03,52,5.10
2015,03,24,03,53,5.00
2015,03,24,03,54,4.90
2015,03,24,03,55,4.90
2015,03,24,03,56,4.90
2015,03,24,03,57,4.90
2015,03,24,03,58,4.90
2015,03,24,03,59,4.90
2015,03,24,04,00,4.90
2015,03,24,04,01,4.90
2015,03,24,04,02,4.90
2015,03,24,04,03,4.90
2015,03,24,04,04,4.90
2015,03,24,04,05,4.90
2015,03,24,04,06,4.90
2015,03,24,04,07,4.90
2015,03,24,04,08,4.90
2015,03,24,04,09,4.80
2015,03,24,04,10,4.80
2015,03,24,04,11,4.80
2015,03,24,04,12,4.80
2015,03,24,04,13,4.80
2015,03,24,04,14,4.80
2015,03,24,04,15,4.80
2015,03,24,04,16,4.80
2015,03,24,04,17,4.80
2015,03,24,04,18,4.80
2015,03,24,04,19,4.80
2015,03,24,04,20,4.70
2015,03,24,04,21,4.70
2015,03,24,04,22,4.70
2015,03,24,04,23,4.70
2015,03,24,04,24,4.70
2015,03,24,04,25,4.70
2015,03,24,04,26,4.70
2015,03,24,04,27,4.70
2015,03,24,04,28,4.60
2015,03,24,04,29,4.60
2015,03,24,04,30,4.60
2015,03,24,04,31,4.60
2015,03,24,04,32,4.60
2015,03,24,04,33,4.60
2015,03,24,04,34,4.60
2015,03,24,04,35,4.60
2015,03,24,04,36,4.60
2015,03,24,04,37,4.60
2015,03,24,04,38,4.60
2015,03,24,04,39,4.60
2015,03,24,04,40,4.60
2015,03,24,04,41,4.60
2015,03,24,04,42,4.50
2015,03,24,04,43,4.50
2015,03,24,04,44,4.50
2015,03,24,04,45,4.50
2015,03,24,04,46,4.50
2015,03,24,04,47,4.40
2015,03,24,04,48,4.40
2015,03,24,04,49,4.40
2015,03,24,04,50,4.40
2015,03,24,04,51,4.40
2015,03,24,04,52,4.40
2015,03,24,04,53,4.30
2015,03,24,04,54,4.30
2015,03,24,04,55,4.30
2015,03,24,04,56,4.30
2015,03,24,04,57,4.30
2015,03,24,04,58,4.20
2015,03,24,04,59,4.20
2015,03,24,05,00,4.20
2015,03,24,05,01,4.20
2015,03,24,05,02,4.20
2015,03,24,05,03,4.20
2015,03,24,05,04,4.20
2015,03,24,05,05,4.20
2015,03,24,05,06,4.20
2015,03,24,05,07,4.20
2015,03,24,05,08,4.20
2015,03,24,05,09,4.20
2015,03,24,05,10,4.10
2015,03,24,05,11,4.10
2015,03,24,05,12,4.10
2015,03,24,05,13,4.10
2015,03,24,05,14,4.10
2015,03,24,05,15,4.10
2015,03,24,05,16,4.10
2015,03,24,05,17,4.10
2015,03,24,05,18,4.10
2015,03,24,05,19,4.10
2015,03,24,05,20,4.00
2015,03,24,05,21,4.00
2015,03,24,05,22,4.00
2015,03,24,05,23,4.00
2015,03,24,05,24,4.00
2015,03,24,05,25,4.00
2015,03,24,05,26,3.90
2015,03,24,05,27,3.90
2015,03,24,05,28,3.90
2015,03,24,05,29,3.90
2015,03,24,05,30,3.80
2015,03,24,05,31,3.80
2015,03,24,05,32,3.80
2015,03,24,05,33,3.80
2015,03,24,05,34,3.80
2015,03,24,05,35,3.80
2015,03,24,05,36,3.80
2015,03,24,05,37,3.80
2015,03,24,05,38,3.80
2015,03,24,05,39,3.80
2015,03,24,05,40,3.80
2015,03,24,05,41,3.80
2015,03,24,05,42,3.80
2015,03,24,05,43,3.80
2015,03,24,05,44,3.80
2015,03,24,05,45,3.80
2015,03,24,05,46,3.80
2015,03,24,05,47,3.70
2015,03,24,05,48,3.70
2015,03,24,05,49,3.70
2015,03,24,05,50,3.70
2015,03,24,05,51,3.70
2015,03,24,05,52,3.70
2015,03,24,05,53,3.70
2015,03,24,05,54,3.70
2015,03,24,05,55,3.70
2015,03,24,05,56,3.70
2015,03,24,05,57,3.60
2015,03,24,05,58,3.60
2015,03,24,05,59,3.60
2015,03,24,06,00,3.60
2015,03,24,06,01,3.60
2015,03,24,06,02,3.60
2015,03,24,06,03,3.60
2015,03,24,06,04,3.60
2015,03,24,06,05,3.60
2015,03,24,06,06,3.60
2015,03,24,06,07,3.60
2015,03,24,06,08,3.60
2015,03,24,06,09,3.50
2015,03,24,06,10,3.50
2015,03,24,06,11,3.50
2015,03,24,06,12,3.50
2015,03,24,06,13,3.50
2015,03,24,06,14,3.50
2015,03,24,06,15,3.50
2015,03,24,06,16,3.50
2015,03,24,06,17,3.50
2015,03,24,06,18,3.50
2015,03,24,06,19,3.50
2015,03,24,06,20,3.50
2015,03,24,06,21,3.40
2015,03,24,06,22,3.40
2015,03,24,06,23,3.40
2015,03,24,06,24,3.40
2015,03,24,06,25,3.40
2015,03,24,06,26,3.30
2015,03,24,06,27,3.30
2015,03,24,06,28,3.30
2015,03,24,06,29,3.30
2015,03,24,06,30,3.30
2015,03,24,06,31,3.30
2015,03,24,06,32,3.30
2015,03,24,06,33,3.30
2015,03,24,06,34,3.30
2015,03,24,06,35,3.30
2015,03,24,06,36,3.30
2015,03,24,06,37,3.30
2015,03,24,06,38,3.20
2015,03,24,06,39,3.20
2015,03,24,06,40,3.20
2015,03,24,06,41,3.20
2015,03,24,06,42,3.20
2015,03,24,06,43,3.20
2015,03,24,06,44,3.20
2015,03,24,06,45,3.10
2015,03,24,06,46,3.10
2015,03,24,06,47,3.10
2015,03,24,06,48,3.10
2015,03,24,06,49,3.10
2015,03,24,06,50,3.10
2015,03,24,06,51,3.10
2015,03,24,06,52,3.10
2015,03,24,06,53,3.10
2015,03,24,06,54,3.10
2015,03,24,06,55,3.10
2015,03,24,06,56,3.10
2015,03,24,06,57,3.10
2015,03,24,06,58,3.10
2015,03,24,06,59,3.10
2015,03,24,07,00,3.10
2015,03,24,07,01,3.10
2015,03,24,07,02,3.10
2015,03,24,07,03,3.10
2015,03,24,07,04,3.10
2015,03,24,07,05,3.10
2015,03,24,07,06,3.00
2015,03,24,07,07,2.90
2015,03,24,07,08,2.90
2015,03,24,07,09,2.90
2015,03,24,07,10,2.90
2015,03,24,07,11,2.90
2015,03,24,07,12,2.90
2015,03,24,07,13,2.80
2015,03,24,07,14,2.80
2015,03,24,07,15,2.80
2015,03,24,07,16,2.80
2015,03,24,07,17,2.80
2015,03,24,07,18,2.80
2015,03,24,07,19,2.70
2015,03,24,07,20,2.70
2015,03,24,07,21,2.70
2015,03,24,07,22,2.70
2015,03,24,07,23,2.70
2015,03,24,07,24,2.70
2015,03,24,07,25,2.70
2015,03,24,07,26,2.70
2015,03,24,07,27,2.70
2015,03,24,07,28,2.70
2015,03,24,07,29,2.70
2015,03,24,07,30,2.70
2015,03,24,07,31,2.70
2015,03,24,07,32,2.70
2015,03,24,07,33,2.70
2015,03,24,07,34,2.70
2015,03,24,07,35,2.70
2015,03,24,07,36,2.70
2015,03,24,07,37,2.70
2015,03,24,07,38,2.70
2015,03,24,07,39,2.70
2015,03,24,07,40,2.70
2015,03,24,07,41,2.70
2015,03,24,07,42,2.70
2015,03,24,07,43,2.70
2015,03,24,07,44,2.70
2015,03,24,07,45,2.70
2015,03,24,07,46,2.70
2015,03,24,07,47,2.70
2015,03,24,07,48,2.70
2015,03,24,07,49,2.70
2015,03,24,07,50,2.70
2015,03,24,07,51,2.70
2015,03,24,07,52,2.70
2015,03,24,07,53,2.60
2015,03,24,07,54,2.60
2015,03,24,07,55,2.60
2015,03,24,07,56,2.60
2015,03,24,07,57,2.60
2015,03,24,07,58,2.60
2015,03,24,07,59,2.60
2015,03,24,08,00,2.60
2015,03,24,08,01,2.60
2015,03,24,08,02,2.60
2015,03,24,08,03,2.60
2015,03,24,08,04,2.70
2015,03,24,08,05,2.70
2015,03,24,08,06,2.70
2015,03,24,08,07,2.70
2015,03,24,08,08,2.70
2015,03,24,08,09,2.70
2015,03,24,08,10,2.70
2015,03,24,08,11,2.70
2015,03,24,08,12,2.70
2015,03,24,08,13,2.70
2015,03,24,08,14,2.70
2015,03,24,08,15,2.70
2015,03,24,08,16,2.70
2015,03,24,08,17,2.70
2015,03,24,08,18,2.70
2015,03,24,08,19,2.70
2015,03,24,08,20,2.70
2015,03,24,08,21,2.70
2015,03,24,08,22,2.70
2015,03,24,08,23,2.80
2015,03,24,08,24,2.80
2015,03,24,08,25,2.80
2015,03,24,08,26,2.80
2015,03,24,08,27,2.90
2015,03,24,08,28,2.90
2015,03,24,08,29,2.90
2015,03,24,08,30,2.90
2015,03,24,08,31,2.90
2015,03,24,08,32,3.00
2015,03,24,08,33,3.10
2015,03,24,08,34,3.10
2015,03,24,08,35,3.10
2015,03,24,08,36,3.10
2015,03,24,08,37,3.10
2015,03,24,08,38,3.10
2015,03,24,08,39,3.20
2015,03,24,08,40,3.20
2015,03,24,08,41,3.20
2015,03,24,08,42,3.20
2015,03,24,08,43,3.30
2015,03,24,08,44,3.30
2015,03,24,08,45,3.30
2015,03,24,08,46,3.30
2015,03,24,08,47,3.30
2015,03,24,08,48,3.30
2015,03,24,08,49,3.40
2015,03,24,08,50,3.40
2015,03,24,08,51,3.50
2015,03,24,08,52,3.50
2015,03,24,08,53,3.50
2015,03,24,08,54,3.60
2015,03,24,08,55,3.60
2015,03,24,08,56,3.70
2015,03,24,08,57,3.70
2015,03,24,08,58,3.70
2015,03,24,08,59,3.80
2015,03,24,09,00,3.80
2015,03,24,09,01,3.90
2015,03,24,09,02,3.90
2015,03,24,09,03,4.00
2015,03,24,09,04,4.00
2015,03,24,09,05,4.00
2015,03,24,09,06,4.10
2015,03,24,09,07,4.10
2015,03,24,09,08,4.20
2015,03,24,09,09,4.20
2015,03,24,09,10,4.20
2015,03,24,09,11,4.30
2015,03,24,09,12,4.30
2015,03,24,09,13,4.40
2015,03,24,09,14,4.40
2015,03,24,09,15,4.40
2015,03,24,09,16,4.50
2015,03,24,09,17,4.50
2015,03,24,09,18,4.50
2015,03,24,09,19,4.60
2015,03,24,09,20,4.60
2015,03,24,09,21,4.70
2015,03,24,09,22,4.80
2015,03,24,09,23,4.80
2015,03,24,09,24,4.90
2015,03,24,09,25,5.00
2015,03,24,09,26,5.10
2015,03,24,09,27,5.10
2015,03,24,09,28,5.20
2015,03,24,09,29,5.20
2015,03,24,09,30,5.30
2015,03,24,09,31,5.30
2015,03,24,09,32,5.40
2015,03,24,09,33,5.50
2015,03,24,09,34,5.50
2015,03,24,09,35,5.60
2015,03,24,09,36,5.60
2015,03,24,09,37,5.70
2015,03,24,09,38,5.70
2015,03,24,09,39,5.70
2015,03,24,09,40,5.80
2015,03,24,09,41,5.90
2015,03,24,09,42,5.90
2015,03,24,09,43,6.00
2015,03,24,09,44,6.00
2015,03,24,09,45,6.00
2015,03,24,09,46,6.10
2015,03,24,09,47,6.10
2015,03,24,09,48,6.20
2015,03,24,09,49,6.20
2015,03,24,09,50,6.20
2015,03,24,09,51,6.30
2015,03,24,09,52,6.30
2015,03,24,09,53,6.30
2015,03,24,09,54,6.40
2015,03,24,09,55,6.40
2015,03,24,09,56,6.50
2015,03,24,09,57,6.60
2015,03,24,09,58,6.60
2015,03,24,09,59,6.70
2015,03,24,10,00,6.80
2015,03,24,10,01,6.80
2015,03,24,10,02,6.80
2015,03,24,10,03,6.90
2015,03,24,10,04,7.00
2015,03,24,10,05,7.00
2015,03,24,10,06,7.10
2015,03,24,10,07,7.10
2015,03,24,10,08,7.20
2015,03,24,10,09,7.30
2015,03,24,10,10,7.30
2015,03,24,10,11,7.30
2015,03,24,10,12,7.40
2015,03,24,10,13,7.50
2015,03,24,10,14,7.50
2015,03,24,10,15,7.60
2015,03,24,10,16,7.70
2015,03,24,10,17,7.70
2015,03,24,10,18,7.80
2015,03,24,10,19,7.90
2015,03,24,10,20,7.90
2015,03,24,10,21,8.00
2015,03,24,10,22,8.00
2015,03,24,10,23,8.10
2015,03,24,10,24,8.10
2015,03,24,10,25,8.20
2015,03,24,10,26,8.20
2015,03,24,10,27,8.20
2015,03,24,10,28,8.20
2015,03,24,10,29,8.20
2015,03,24,10,30,8.30
2015,03,24,10,31,8.30
2015,03,24,10,32,8.30
2015,03,24,10,33,8.30
2015,03,24,10,34,8.30
2015,03,24,10,35,8.30
2015,03,24,10,36,8.40
2015,03,24,10,37,8.40
2015,03,24,10,38,8.40
2015,03,24,10,39,8.40
2015,03,24,10,40,8.40
2015,03,24,10,41,8.40
2015,03,24,10,42,8.40
2015,03,24,10,43,8.40
2015,03,24,10,44,8.40
2015,03,24,10,45,8.40
2015,03,24,10,46,8.50
2015,03,24,10,47,8.50
2015,03,24,10,48,8.50
2015,03,24,10,49,8.50
2015,03,24,10,50,8.60
2015,03,24,10,51,8.60
2015,03,24,10,52,8.60
2015,03,24,10,53,8.70
2015,03,24,10,54,8.70
2015,03,24,10,55,8.70
2015,03,24,10,56,8.70
2015,03,24,10,57,8.70
2015,03,24,10,58,8.70
2015,03,24,10,59,8.80
2015,03,24,11,00,8.80
2015,03,24,11,01,8.80
2015,03,24,11,02,8.90
2015,03,24,11,03,8.90
2015,03,24,11,04,8.90
2015,03,24,11,05,8.90
2015,03,24,11,06,8.90
2015,03,24,11,07,8.90
2015,03,24,11,08,8.90
2015,03,24,11,09,9.00
2015,03,24,11,10,9.00
2015,03,24,11,11,9.00
2015,03,24,11,12,9.00
2015,03,24,11,13,9.00
2015,03,24,11,14,9.10
2015,03,24,11,15,9.10
2015,03,24,11,16,9.10
2015,03,24,11,17,9.10
2015,03,24,11,18,9.20
2015,03,24,11,19,9.20
2015,03,24,11,20,9.20
2015,03,24,11,21,9.20
2015,03,24,11,22,9.20
2015,03,24,11,23,9.20
2015,03,24,11,24,9.20
2015,03,24,11,25,9.20
2015,03,24,11,26,9.20
2015,03,24,11,27,9.20
2015,03,24,11,28,9.20
2015,03,24,11,29,9.20
2015,03,24,11,30,9.20
2015,03,24,11,31,9.20
2015,03,24,11,32,9.20
2015,03,24,11,33,9.20
2015,03,24,11,34,9.20
2015,03,24,11,35,9.20
2015,03,24,11,36,9.20
2015,03,24,11,37,9.20
2015,03,24,11,38,9.20
2015,03,24,11,39,9.20
2015,03,24,11,40,9.30
2015,03,24,11,41,9.30
2015,03,24,11,42,9.40
2015,03,24,11,43,9.40
2015,03,24,11,44,9.40
2015,03,24,11,45,9.50
2015,03,24,11,46,9.50
2015,03,24,11,47,9.50
2015,03,24,11,48,9.50
2015,03,24,11,49,9.60
2015,03,24,11,50,9.60
2015,03,24,11,51,9.60
2015,03,24,11,52,9.60
2015,03,24,11,53,9.60
2015,03,24,11,54,9.50
2015,03,24,11,55,9.50
2015,03,24,11,56,9.50
2015,03,24,11,57,9.60
2015,03,24,11,58,9.60
2015,03,24,11,59,9.60
2015,03,24,12,00,9.60
2015,03,24,12,01,9.60
2015,03,24,12,02,9.70
2015,03,24,12,03,9.70
2015,03,24,12,04,9.70
2015,03,24,12,05,9.70
2015,03,24,12,06,9.70
2015,03,24,12,07,9.80
2015,03,24,12,08,9.80
2015,03,24,12,09,9.80
2015,03,24,12,10,9.80
2015,03,24,12,11,9.90
2015,03,24,12,12,9.90
2015,03,24,12,13,9.90
2015,03,24,12,14,9.90
2015,03,24,12,15,10.00
2015,03,24,12,16,10.10
2015,03,24,12,17,10.10
2015,03,24,12,18,10.20
2015,03,24,12,19,10.20
2015,03,24,12,20,10.30
2015,03,24,12,21,10.30
2015,03,24,12,22,10.30
2015,03,24,12,23,10.40
2015,03,24,12,24,10.40
2015,03,24,12,25,10.40
2015,03,24,12,26,10.40
2015,03,24,12,27,10.40
2015,03,24,12,28,10.40
2015,03,24,12,29,10.40
2015,03,24,12,30,10.40
2015,03,24,12,31,10.40
2015,03,24,12,32,10.40
2015,03,24,12,33,10.40
2015,03,24,12,34,10.40
2015,03,24,12,35,10.30
2015,03,24,12,36,10.30
2015,03,24,12,37,10.20
2015,03,24,12,38,10.20
2015,03,24,12,39,10.10
2015,03,24,12,40,10.10
2015,03,24,12,41,10.10
2015,03,24,12,42,10.10
2015,03,24,12,43,10.10
2015,03,24,12,44,10.10
2015,03,24,12,45,10.20
2015,03,24,12,46,10.20
2015,03,24,12,47,10.20
2015,03,24,12,48,10.30
2015,03,24,12,49,10.30
2015,03,24,12,50,10.40
2015,03,24,12,51,10.40
2015,03,24,12,52,10.40
2015,03,24,12,53,10.40
2015,03,24,12,54,10.40
2015,03,24,12,55,10.50
2015,03,24,12,56,10.60
2015,03,24,12,57,10.60
2015,03,24,12,58,10.60
2015,03,24,12,59,10.60
2015,03,24,13,00,10.60
2015,03,24,13,01,10.60
2015,03,24,13,02,10.60
2015,03,24,13,03,10.60
2015,03,24,13,04,10.60
2015,03,24,13,05,10.60
2015,03,24,13,06,10.70
2015,03,24,13,07,10.70
2015,03,24,13,08,10.80
2015,03,24,13,09,10.80
2015,03,24,13,10,10.80
2015,03,24,13,11,10.90
2015,03,24,13,12,10.90
2015,03,24,13,13,11.00
2015,03,24,13,14,11.10
2015,03,24,13,15,11.10
2015,03,24,13,16,11.10
2015,03,24,13,17,11.20
2015,03,24,13,18,11.30
2015,03,24,13,19,11.30
2015,03,24,13,20,11.30
2015,03,24,13,21,11.20
2015,03,24,13,22,11.20
2015,03,24,13,23,11.20
2015,03,24,13,24,11.20
2015,03,24,13,25,11.20
2015,03,24,13,26,11.20
2015,03,24,13,27,11.20
2015,03,24,13,28,11.20
2015,03,24,13,29,11.20
2015,03,24,13,30,11.20
2015,03,24,13,31,11.20
2015,03,24,13,32,11.20
2015,03,24,13,33,11.20
2015,03,24,13,34,11.20
2015,03,24,13,35,11.10
2015,03,24,13,36,11.10
2015,03,24,13,37,11.10
2015,03,24,13,38,11.10
2015,03,24,13,39,11.10
2015,03,24,13,40,11.10
2015,03,24,13,41,11.00
2015,03,24,13,42,10.90
2015,03,24,13,43,10.90
2015,03,24,13,44,10.90
2015,03,24,13,45,10.90
2015,03,24,13,46,10.90
2015,03,24,13,47,10.90
2015,03,24,13,48,10.80
2015,03,24,13,49,10.80
2015,03,24,13,50,10.80
2015,03,24,13,51,10.80
2015,03,24,13,52,10.80
2015,03,24,13,53,10.80
2015,03,24,13,54,10.80
2015,03,24,13,55,10.80
2015,03,24,13,56,10.80
2015,03,24,13,57,10.80
2015,03,24,13,58,10.80
2015,03,24,13,59,10.80
2015,03,24,14,00,10.90
2015,03,24,14,01,10.90
2015,03,24,14,02,10.90
2015,03,24,14,03,10.90
2015,03,24,14,04,10.90
2015,03,24,14,05,10.90
2015,03,24,14,06,10.90
2015,03,24,14,07,10.90
2015,03,24,14,08,10.90
2015,03,24,14,09,10.90
2015,03,24,14,10,11.00
2015,03,24,14,11,11.10
2015,03,24,14,12,11.10
2015,03,24,14,13,11.10
2015,03,24,14,14,11.10
2015,03,24,14,15,11.00
2015,03,24,14,16,10.90
2015,03,24,14,17,10.90
2015,03,24,14,18,10.90
2015,03,24,14,19,10.90
2015,03,24,14,20,10.90
2015,03,24,14,21,10.90
2015,03,24,14,22,10.90
2015,03,24,14,23,10.90
2015,03,24,14,24,10.90
2015,03,24,14,25,10.90
2015,03,24,14,26,10.90
2015,03,24,14,27,10.90
2015,03,24,14,28,10.90
2015,03,24,14,29,11.00
2015,03,24,14,30,11.10
2015,03,24,14,31,11.10
2015,03,24,14,32,11.10
2015,03,24,14,33,11.10
2015,03,24,14,34,11.10
2015,03,24,14,35,11.20
2015,03,24,14,36,11.20
2015,03,24,14,37,11.30
2015,03,24,14,38,11.30
2015,03,24,14,39,11.40
2015,03,24,14,40,11.40
2015,03,24,14,41,11.40
2015,03,24,14,42,11.50
2015,03,24,14,43,11.60
2015,03,24,14,44,11.60
2015,03,24,14,45,11.60
2015,03,24,14,46,11.70
2015,03,24,14,47,11.70
2015,03,24,14,48,11.80
2015,03,24,14,49,11.80
2015,03,24,14,50,11.80
2015,03,24,14,51,11.70
2015,03,24,14,52,11.60
2015,03,24,14,53,11.60
2015,03,24,14,54,11.60
2015,03,24,14,55,11.50
2015,03,24,14,56,11.40
2015,03,24,14,57,11.40
2015,03,24,14,58,11.30
2015,03,24,14,59,11.30
2015,03,24,15,00,11.30
2015,03,24,15,01,11.30
2015,03,24,15,02,11.30
2015,03,24,15,03,11.30
2015,03,24,15,04,11.30
2015,03,24,15,05,11.30
2015,03,24,15,06,11.30
2015,03,24,15,07,11.30
2015,03,24,15,08,11.30
2015,03,24,15,09,11.20
2015,03,24,15,10,11.10
2015,03,24,15,11,11.10
2015,03,24,15,12,11.00
2015,03,24,15,13,10.90
2015,03,24,15,14,10.90
2015,03,24,15,15,10.90
2015,03,24,15,16,10.90
2015,03,24,15,17,10.90
2015,03,24,15,18,10.90
2015,03,24,15,19,11.00
2015,03,24,15,20,11.10
2015,03,24,15,21,11.10
2015,03,24,15,22,11.20
2015,03,24,15,23,11.20
2015,03,24,15,24,11.30
2015,03,24,15,25,11.30
2015,03,24,15,26,11.30
2015,03,24,15,27,11.20
2015,03,24,15,28,11.20
2015,03,24,15,29,11.20
2015,03,24,15,30,11.20
2015,03,24,15,31,11.20
2015,03,24,15,32,11.20
2015,03,24,15,33,11.20
2015,03,24,15,34,11.10
2015,03,24,15,35,11.10
2015,03,24,15,36,11.10
2015,03,24,15,37,11.10
2015,03,24,15,38,11.10
2015,03,24,15,39,11.10
2015,03,24,15,40,11.10
2015,03,24,15,41,11.10
2015,03,24,15,42,11.10
2015,03,24,15,43,11.10
2015,03,24,15,44,11.10
2015,03,24,15,45,11.10
2015,03,24,15,46,11.20
2015,03,24,15,47,11.20
2015,03,24,15,48,11.20
2015,03,24,15,49,11.20
2015,03,24,15,50,11.20
2015,03,24,15,51,11.30
2015,03,24,15,52,11.30
2015,03,24,15,53,11.30
2015,03,24,15,54,11.40
2015,03,24,15,55,11.40
2015,03,24,15,56,11.40
2015,03,24,15,57,11.40
2015,03,24,15,58,11.40
2015,03,24,15,59,11.40
2015,03,24,16,00,11.40
2015,03,24,16,01,11.40
2015,03,24,16,02,11.40
2015,03,24,16,03,11.40
2015,03,24,16,04,11.40
2015,03,24,16,05,11.40
2015,03,24,16,06,11.40
2015,03,24,16,07,11.30
2015,03,24,16,08,11.30
2015,03,24,16,09,11.30
2015,03,24,16,10,11.30
2015,03,24,16,11,11.30
2015,03,24,16,12,11.20
2015,03,24,16,13,11.20
2015,03,24,16,14,11.20
2015,03,24,16,15,11.20
2015,03,24,16,16,11.10
2015,03,24,16,17,11.10
2015,03,24,16,18,11.20
2015,03,24,16,19,11.20
2015,03,24,16,20,11.20
2015,03,24,16,21,11.20
2015,03,24,16,22,11.20
2015,03,24,16,23,11.20
2015,03,24,16,24,11.10
2015,03,24,16,25,11.10
2015,03,24,16,26,11.10
2015,03,24,16,27,11.10
2015,03,24,16,28,11.10
2015,03,24,16,29,11.10
2015,03,24,16,30,11.10
2015,03,24,16,31,11.00
2015,03,24,16,32,10.90
2015,03,24,16,33,10.90
2015,03,24,16,34,10.90
2015,03,24,16,35,10.90
2015,03,24,16,36,10.90
2015,03,24,16,37,10.90
2015,03,24,16,38,10.90
2015,03,24,16,39,10.90
2015,03,24,16,40,10.90
2015,03,24,16,41,10.90
2015,03,24,16,42,10.80
2015,03,24,16,43,10.80
2015,03,24,16,44,10.70
2015,03,24,16,45,10.70
2015,03,24,16,46,10.60
2015,03,24,16,47,10.60
2015,03,24,16,48,10.60
2015,03,24,16,49,10.60
2015,03,24,16,50,10.60
2015,03,24,16,51,10.60
2015,03,24,16,52,10.50
2015,03,24,16,53,10.40
2015,03,24,16,54,10.40
2015,03,24,16,55,10.40
2015,03,24,16,56,10.40
2015,03,24,16,57,10.40
2015,03,24,16,58,10.40
2015,03,24,16,59,10.40
2015,03,24,17,00,10.40
2015,03,24,17,01,10.40
2015,03,24,17,02,10.40
2015,03,24,17,03,10.40
2015,03,24,17,04,10.40
2015,03,24,17,05,10.40
2015,03,24,17,06,10.40
2015,03,24,17,07,10.40
2015,03,24,17,08,10.40
2015,03,24,17,09,10.40
2015,03,24,17,10,10.40
2015,03,24,17,11,10.50
2015,03,24,17,12,10.60
2015,03,24,17,13,10.60
2015,03,24,17,14,10.60
2015,03,24,17,15,10.60
2015,03,24,17,16,10.60
2015,03,24,17,17,10.60
2015,03,24,17,18,10.60
2015,03,24,17,19,10.60
2015,03,24,17,20,10.50
2015,03,24,17,21,10.40
2015,03,24,17,22,10.40
2015,03,24,17,23,10.40
2015,03,24,17,24,10.40
2015,03,24,17,25,10.40
2015,03,24,17,26,10.40
2015,03,24,17,27,10.40
2015,03,24,17,28,10.40
2015,03,24,17,29,10.40
2015,03,24,17,30,10.40
2015,03,24,17,31,10.40
2015,03,24,17,32,10.40
2015,03,24,17,33,10.40
2015,03,24,17,34,10.40
2015,03,24,17,35,10.50
2015,03,24,17,36,10.50
2015,03,24,17,37,10.60
2015,03,24,17,38,10.60
2015,03,24,17,39,10.60
2015,03,24,17,40,10.60
2015,03,24,17,41,10.60
2015,03,24,17,42,10.60
2015,03,24,17,43,10.60
2015,03,24,17,44,10.60
2015,03,24,17,45,10.60
2015,03,24,17,46,10.60
2015,03,24,17,47,10.60
2015,03,24,17,48,10.60
2015,03,24,17,49,10.60
2015,03,24,17,50,10.60
2015,03,24,17,51,10.60